Temp
24 24 23 23 23 23 23 23 23 23 23 23 23 23 23 23 24 24 24 24 24 24 24 24 24 24 24 25 25 25 25 25 24 24 24 24 24 24 23 23 23 23 23 23 23 23 23 23 23 24 23 23 23 23 23 23 23 23 23 23 23 23 23 22 21 21 22 23 23 24 24 24 24 24 25 25 25 25 25 25 25 25 25 25 25
24 24 24 23 23 23 23 23 23 23 23 23 23 23 23 23 24 23 23 24 24 24 24 24 24 24 24 24 25 25 25 25 24 24 24 24 24 24 23 23 23 23 23 23 24 23 23 23 23 24 23 23 23 23 23 23 23 23 23 23 23 23 23 22 21 21 21 22 23 23 23 23 24 24 24 24 25 25 25 25 25 25 25 25 25
24 24 24 23 23 23 23 23 23 23 23 23 23 23 23 23 23 23 23 24 24 24 24 24 24 24 24 24 24 25 25 25 24 24 24 24 24 24 24 23 23 23 23 24 24 24 23 23 23 24 23 23 23 23 23 23 23 23 23 23 23 23 23 23 22 21 21 22 22 23 23 23 23 24 24 24 24 24 24 24 24 24 24 24 24
24 24 24 23 23 23 23 23 23 23 23 23 23 23 23 23 23 23 23 23 23 24 24 24 24 24 24 24 24 24 25 25 24 24 24 24 24 24 24 24 23 23 24 24 24 23 23 23 24 24 23 23 23 23 23 23 23 23 23 23 23 23 24 23 22 22 21 22 22 23 23 23 23 24 23 23 23 24 24 24 24 24 24 24 24
24 24 24 23 23 23 23 23 23 23 23 23 23 23 23 23 23 23 23 23 23 23 24 24 24 24 24 24 24 24 24 24 24 24 24 24 24 24 24 24 24 24 24 23 23 23 23 24 24 24 23 23 23 23 23 23 23 23 23 23 23 23 23 23 23 22 21 21 22 23 23 23 23 23 23 23 23 23 23 23 23 23 24 24 24
24 24 24 23 23 23 23 23 23 23 23 23 23 23 23 23 23 23 23 23 23 23 23 24 24 24 24 24 24 24 24 24 24 24 24 24 24 24 24 24 24 24 24 24 23 23 23 23 24 23 23 23 23 23 23 23 23 23 23 23 23 23 22 22 22 22 21 21 21 21 22 22 22 23 23 23 22 22 22 23 23 23 23 23 23
24 24 24 24 23 23 23 23 23 23 23 23 23 23 23 23 23 23 23 23 23 23 23 23 23 23 24 24 24 24 24 24 24 24 24 24 24 24 24 24 24 24 24 24 24 23 23 23 23 23 23 23 23 23 23 23 22 23 23 23 22 22 22 22 22 21 21 21 21 21 21 21 21 22 23 22 21 21 22 22 22 22 22 23 23
25 24 24 24 24 23 23 23 23 23 23 23 23 23 23 23 23 23 23 23 23 23 23 23 23 23 23 23 23 24 24 23 24 24 24 24 24 24 24 24 24 24 24 24 24 23 23 23 23 23 23 23 23 23 23 23 23 23 23 23 22 22 22 22 21 21 21 20 20 21 21 21 21 21 22 21 21 21 22 21 21 22 22 22 22
25 24 24 24 24 24 24 23 23 23 23 23 23 23 23 23 23 23 23 23 23 23 23 23 23 23 23 23 23 23 23 23 23 24 24 24 24 24 24 24 23 23 23 23 23 23 23 23 23 23 23 23 23 23 23 23 23 23 23 23 22 22 22 21 21 21 21 20 20 20 20 20 20 21 21 21 21 21 22 21 21 21 21 21 21
25 25 24 24 24 24 24 23 23 23 23 23 23 23 23 23 23 23 23 23 23 23 23 23 23 23 23 23 23 23 23 23 23 24 24 24 24 24 24 24 23 23 23 23 23 23 23 23 23 23 23 23 23 23 23 23 23 23 23 23 22 22 21 21 21 21 21 20 20 20 20 20 21 21 21 21 22 22 22 21 20 21 21 20 21
25 25 24 24 24 24 24 23 23 23 23 23 23 23 23 23 23 23 23 23 23 23 23 23 23 23 23 23 23 23 23 23 23 24 24 24 24 23 23 23 23 23 23 23 23 23 23 23 23 23 23 23 24 24 24 23 23 23 24 23 23 22 21 21 21 21 21 21 21 21 21 21 21 21 21 22 22 22 22 21 21 20 20 20 20
25 25 25 24 24 24 24 23 23 23 23 23 23 23 23 23 23 23 23 23 23 23 23 23 23 23 23 22 22 23 23 23 23 23 23 23 23 23 23 23 23 23 23 23 23 23 23 23 23 23 23 24 24 24 24 24 24 24 24 24 23 23 22 22 22 21 21 21 21 21 21 21 22 22 22 22 22 22 22 21 21 20 20 20 20
25 25 25 24 24 24 24 24 23 23 23 23 23 23 23 23 23 23 23 23 23 23 23 23 23 23 23 23 23 23 23 23 23 23 23 23 23 23 23 23 23 23 23 23 23 23 23 23 23 23 23 23 23 23 23 24 24 24 23 23 23 23 23 22 22 22 22 21 21 21 22 22 21 22 22 22 22 22 21 21 20 20 19 20 20
25 25 25 25 24 24 24 24 23 23 23 23 23 23 23 23 23 23 23 23 22 23 23 23 23 23 23 23 23 23 23 23 23 23 23 23 23 23 23 23 23 23 23 23 23 23 23 23 23 23 23 23 23 23 23 23 23 23 23 23 23 23 23 23 23 23 22 22 21 21 22 22 22 22 23 22 22 21 20 20 20 20 20 20 20
25 25 25 24 24 24 24 24 24 23 23 23 23 23 23 23 23 23 23 23 23 23 23 23 23 23 23 23 23 23 23 23 23 23 23 23 23 23 23 23 23 23 23 23 23 23 23 23 23 23 23 23 23 23 23 24 23 23 23 23 23 23 22 22 23 23 23 23 22 22 22 22 22 22 23 22 21 20 19 19 19 19 19 19 20
25 25 25 25 24 24 24 24 24 23 23 23 23 23 23 23 23 23 23 23 23 23 23 23 23 23 23 23 23 23 23 23 23 23 23 23 23 23 23 23 23 23 23 23 23 23 23 23 23 23 23 23 24 24 24 24 23 23 23 23 23 23 22 22 23 24 24 24 23 23 23 23 23 23 23 23 22 21 19 18 19 19 18 19 19
25 25 25 25 24 24 24 24 24 23 23 23 23 23 23 23 23 23 23 22 22 23 23 23 23 23 23 23 23 23 23 23 23 23 23 23 23 23 23 23 23 23 23 24 24 23 23 23 23 23 23 24 24 24 24 24 23 23 22 22 22 22 22 23 23 24 24 24 24 23 23 23 23 23 23 22 22 22 20 18 18 19 18 18 19
25 25 25 25 25 25 24 24 24 24 23 23 23 23 23 23 23 23 23 23 23 23 23 23 23 23 23 23 23 23 23 23 23 23 23 23 23 23 23 23 23 23 23 24 24 24 24 24 24 23 23 24 24 24 24 23 23 23 22 22 22 22 22 23 23 23 23 23 22 22 22 22 22 22 22 22 22 22 21 19 19 19 18 18 19
26 26 25 25 25 25 25 24 24 24 24 23 23 23 23 23 23 23 23 23 23 23 23 23 23 23 23 23 23 23 23 23 23 23 23 23 23 24 24 23 23 23 24 24 24 24 24 24 24 24 24 24 25 24 24 23 23 23 22 22 22 22 22 23 22 22 22 22 22 22 22 22 21 21 21 21 21 21 21 20 20 19 18 19 19
26 26 26 26 25 25 25 25 24 24 24 24 24 24 24 23 23 23 23 23 23 23 23 23 23 23 23 23 23 23 23 23 23 23 23 23 24 24 24 23 23 24 24 24 23 24 24 24 24 25 24 24 24 24 23 23 23 23 22 22 22 22 22 22 21 20 20 21 22 22 22 22 21 21 21 20 20 20 20 20 20 19 19 19 18
27 26 26 26 26 25 25 25 25 25 24 24 24 24 24 24 23 23 23 23 23 23 23 23 23 23 23 23 23 23 23 23 23 23 23 24 24 24 24 24 24 24 24 24 24 24 24 24 25 25 24 24 23 23 23 23 23 23 23 22 22 22 22 21 21 19 19 20 21 21 21 22 22 22 21 20 21 20 20 19 20 19 19 19 19
27 27 26 26 26 26 25 25 25 25 25 24 24 24 24 24 24 23 23 23 23 23 23 23 23 23 23 23 23 23 23 23 23 23 24 24 24 24 24 24 24 24 24 24 24 24 24 25 24 24 24 23 23 23 23 23 23 23 23 22 22 21 21 21 21 20 19 19 19 20 20 22 22 22 22 21 21 20 19 18 18 19 19 19 19
27 27 27 26 26 26 26 25 25 25 25 25 24 24 24 24 24 24 23 23 23 23 23 23 23 23 23 23 23 23 23 23 24 24 24 24 24 24 24 24 25 25 24 24 24 24 24 24 24 23 23 23 23 23 22 22 22 22 22 21 21 21 21 21 20 20 20 19 19 19 20 21 20 20 21 20 20 19 18 18 17 17 17 17 18
28 27 27 27 26 26 26 26 26 25 25 25 25 24 24 24 24 24 23 23 23 23 23 23 23 23 23 23 23 23 24 24 24 24 24 24 24 24 25 25 25 25 24 24 24 24 24 23 23 23 23 23 22 22 22 22 21 21 21 21 21 21 21 21 20 20 20 19 19 18 19 19 18 18 18 18 18 18 18 17 16 16 15 16 16
28 27 27 27 27 27 26 26 26 26 25 25 25 25 24 24 24 24 23 23 23 23 23 23 23 23 23 23 23 23 24 24 24 24 24 24 25 25 25 25 25 25 24 24 24 23 23 23 23 22 22 22 22 22 21 21 21 21 21 21 21 21 21 21 20 20 19 18 18 17 17 18 17 17 17 16 16 16 16 15 15 15 14 15 15
28 28 27 27 27 27 27 26 26 26 26 25 25 25 25 24 24 24 24 23 23 23 23 23 23 23 23 23 23 23 23 24 24 24 24 24 25 25 25 25 25 25 24 23 23 22 22 22 22 22 22 22 22 21 21 21 21 21 21 21 21 21 21 20 19 19 18 17 17 17 17 17 16 16 16 15 15 15 15 14 14 14 14 14 14
27 27 27 27 27 27 27 26 26 26 26 25 25 25 25 25 24 24 24 23 23 23 23 23 23 23 23 23 23 23 23 24 24 24 24 25 25 25 25 25 25 24 23 22 22 21 21 21 21 21 21 21 21 21 21 21 21 21 21 21 21 21 20 20 19 18 18 17 17 16 16 16 16 16 16 15 15 15 14 14 14 14 14 14 14
26 26 26 26 26 26 26 26 26 26 26 25 25 25 25 25 24 24 24 24 24 23 23 23 23 23 23 23 23 23 23 23 24 24 25 25 25 25 25 26 25 25 24 23 21 20 20 21 21 21 21 21 21 21 21 21 20 21 21 21 21 20 20 20 19 19 18 17 16 16 16 17 17 16 15 15 15 15 14 14 14 14 14 14 14
25 26 26 25 25 25 25 26 26 26 25 25 25 24 24 24 24 24 24 24 24 24 24 24 24 24 24 24 23 23 23 24 25 25 25 25 25 26 26 26 26 26 24 23 21 20 20 20 20 20 20 20 20 20 20 20 20 21 21 21 20 20 20 20 19 19 19 18 16 16 16 16 16 15 15 14 15 14 14 14 14 14 14 14 14
25 25 25 25 25 25 25 25 25 25 25 24 23 23 23 23 24 24 24 24 24 25 25 25 25 25 24 24 24 24 24 25 26 25 25 25 25 25 25 26 26 25 23 22 21 20 19 19 19 19 20 20 20 21 20 21 21 21 21 20 20 20 20 19 19 19 19 18 18 17 16 15 15 14 14 14 14 14 14 14 13 13 14 14 14
25 25 25 25 25 25 24 24 24 24 24 23 23 22 21 21 22 23 24 24 24 24 24 25 25 25 25 25 25 24 25 25 25 25 25 25 25 25 25 25 24 23 22 21 21 20 20 19 19 19 19 20 20 21 21 21 21 20 20 20 20 20 19 19 19 19 19 19 19 18 16 14 14 14 14 13 13 14 14 14 13 13 13 13 13
25 25 25 25 25 24 24 24 24 23 22 22 21 21 21 21 20 21 22 23 23 24 24 24 25 25 25 25 25 25 24 24 24 24 25 24 24 24 24 23 22 22 21 21 21 20 19 19 18 17 18 19 19 19 20 20 20 20 20 20 19 19 19 18 18 18 18 19 18 17 15 14 14 14 13 13 13 13 13 13 13 13 13 13 13
25 24 24 24 24 24 23 23 22 22 22 21 20 20 21 21 20 20 20 21 22 23 23 24 24 24 24 24 24 24 24 24 24 24 24 24 23 23 22 21 21 21 21 21 21 19 18 18 17 16 17 18 18 18 19 20 20 20 19 19 19 18 18 18 18 18 18 18 18 16 16 15 14 13 13 13 13 13 13 13 13 13 13 13 13
24 24 24 24 24 23 23 22 22 21 21 21 20 20 21 21 21 20 19 20 20 21 22 23 23 23 23 23 23 24 24 23 23 22 23 22 22 22 21 20 20 19 20 21 21 19 18 17 16 15 16 17 18 18 19 19 19 19 19 18 18 18 18 18 18 18 19 19 18 16 16 15 14 13 13 13 13 13 13 13 13 13 13 13 13
23 23 23 24 24 23 23 22 21 20 20 20 20 20 21 21 21 20 20 20 19 19 19 20 21 22 22 22 22 22 22 22 21 21 20 20 19 20 20 19 19 18 19 20 21 20 18 16 15 15 16 18 18 19 19 19 18 18 17 17 18 18 18 18 18 18 18 18 17 17 16 16 15 14 13 13 13 13 13 13 13 13 13 13 13
23 23 22 22 23 22 22 22 21 20 20 20 20 21 21 21 21 20 20 19 18 17 16 17 18 19 19 19 19 20 20 20 19 19 19 18 18 19 19 19 18 18 18 18 18 17 16 16 16 16 17 18 18 18 18 18 17 17 17 17 17 17 17 18 18 18 18 18 17 17 17 16 15 15 14 14 14 13 13 13 13 13 13 13 13
22 22 22 22 22 21 21 21 21 20 20 20 20 20 20 20 20 20 19 18 17 16 15 15 15 16 17 17 17 17 18 18 17 17 18 18 18 19 20 20 19 18 17 16 15 15 15 16 17 18 18 18 17 17 17 16 16 16 16 16 17 17 17 17 17 17 17 17 17 17 17 16 16 15 15 14 14 14 14 13 13 13 13 13 13
21 21 21 21 21 21 20 20 20 20 20 20 20 20 20 19 19 18 17 16 16 15 15 15 15 15 15 15 16 16 16 17 17 17 18 18 19 19 19 20 20 19 17 15 15 15 16 16 16 17 17 17 17 16 16 16 16 16 16 16 16 16 17 17 17 17 17 17 17 17 17 17 16 16 15 15 14 14 14 14 14 14 14 14 14
20 20 20 20 20 20 20 19 19 19 19 19 19 19 19 18 18 17 16 16 16 15 15 15 15 15 15 15 15 15 15 16 17 17 18 18 18 18 19 18 18 17 16 15 15 15 15 15 15 15 16 16 16 16 16 16 16 16 16 16 16 16 16 16 16 17 17 17 17 17 17 17 16 16 16 15 15 14 14 14 14 14 14 14 14
20 20 20 20 20 19 19 19 19 19 18 18 18 18 18 17 17 16 16 16 16 16 15 15 15 15 15 15 15 16 16 16 16 16 17 17 17 17 17 17 17 16 15 14 14 15 15 15 15 16 16 16 16 16 16 16 16 16 16 16 16 16 16 16 16 16 16 16 16 16 17 17 17 16 16 16 15 15 15 14 14 14 14 14 14
20 19 19 19 19 19 19 18 18 18 18 18 18 17 17 17 16 16 16 16 16 15 15 15 15 15 15 15 15 16 16 15 15 15 16 15 15 16 16 15 15 15 14 14 14 15 15 15 15 16 16 16 16 16 16 16 16 16 16 16 16 16 16 16 16 16 16 16 17 17 17 16 17 17 17 16 16 16 15 15 15 15 14 14 14
19 19 18 18 18 18 18 18 18 17 17 17 17 17 17 16 16 16 15 15 15 15 14 14 15 15 15 15 15 16 15 15 15 15 15 14 15 15 14 14 14 14 14 15 15 15 15 15 15 16 16 16 16 16 16 16 16 16 16 16 16 16 16 16 16 16 16 16 16 17 17 17 17 17 17 17 16 16 16 16 16 15 15 15 15
19 18 18 17 17 17 17 17 17 16 16 16 16 16 16 16 15 15 15 14 14 14 13 13 14 14 14 15 15 15 15 14 14 14 14 14 14 14 14 14 14 14 15 15 15 15 15 16 15 16 16 15 15 15 15 16 16 16 16 16 16 16 16 16 16 16 16 16 16 16 16 17 17 17 17 17 17 17 17 16 16 16 16 16 15
17 17 17 16 16 15 15 15 15 15 15 15 15 15 15 14 14 14 13 13 13 13 13 13 13 13 13 14 15 14 14 14 14 14 13 13 13 13 13 14 14 14 14 15 15 15 15 15 15 15 15 15 15 15 15 15 15 16 16 16 16 16 16 16 17 17 17 17 17 16 16 16 16 16 16 16 16 16 16 16 16 16 16 16 16
15 15 15 15 14 14 14 14 14 13 13 13 13 13 13 13 13 13 13 13 12 12 12 12 12 12 12 12 13 13 12 12 12 12 12 12 12 12 13 13 13 14 14 14 14 14 14 14 14 14 14 14 14 14 15 15 15 15 16 16 16 16 16 16 17 17 17 17 17 17 17 17 17 17 17 16 16 16 16 16 16 16 16 16 16
14 13 13 13 13 13 13 13 13 13 12 12 11 11 11 11 11 11 11 11 11 11 11 11 11 11 11 11 11 10 10 10 10 10 11 11 11 11 12 12 13 13 13 13 13 13 14 14 14 14 14 14 14 14 14 14 15 15 15 15 16 16 16 16 16 16 17 17 17 17 17 17 17 17 17 17 16 17 16 16 16 16 16 16 16
13 12 12 12 12 12 12 12 12 12 12 11 11 11 10 10 10 10 10 10 10 10 10 10 10 9 9 9 9 9 9 9 9 9 9 9 9 10 10 11 11 12 12 12 12 12 13 13 13 13 13 13 13 13 14 14 14 14 14 15 15 15 16 16 16 16 16 16 16 16 17 17 17 17 17 17 17 17 17 16 16 16 16 16 16
11 11 11 11 11 11 10 10 10 10 10 10 10 9 9 9 9 9 9 9 9 9 9 8 8 8 8 8 8 8 8 8 8 7 8 8 8 9 10 10 11 11 11 11 11 11 11 12 12 12 12 13 13 13 13 13 13 14 14 14 14 15 15 15 15 15 16 16 16 16 16 16 16 17 17 17 17 17 17 17 17 16 16 16 16
10 10 9 9 9 9 9 9 9 9 9 8 8 8 8 8 7 7 7 7 7 7 7 7 7 7 7 6 6 7 7 7 7 6 7 7 8 8 9 9 10 10 10 10 10 10 10 11 11 11 11 11 12 12 12 12 13 13 13 13 13 14 14 14 15 15 15 15 15 15 16 16 16 16 16 16 17 17 17 17 17 17 17 16 16
9 9 8 8 8 8 8 8 8 8 8 7 7 7 7 6 6 6 6 6 6 6 6 6 6 6 6 6 6 6 6 6 6 6 6 7 7 8 8 9 9 9 9 9 9 9 9 10 10 10 10 10 11 11 11 11 11 11 11 12 12 13 13 14 14 14 15 15 15 15 15 15 15 15 15 16 16 16 16 17 17 17 17 17 16
8 8 8 7 7 7 7 7 7 7 6 6 6 6 6 5 5 5 5 5 5 5 5 5 5 5 5 5 6 6 6 6 6 6 7 7 7 7 8 8 8 8 8 8 8 8 9 9 9 9 10 10 10 10 10 10 10 10 10 11 12 12 13 13 13 14 14 14 14 15 15 15 15 15 15 15 15 15 16 16 16 16 16 16 16
Height
772 775 779 782 785 788 792 794 797 800 802 804 806 808 811 813 815 817 819 821 823 825 827 828 830 832 834 836 838 840 841 842 843 845 846 846 847 849 850 851 851 852 853 853 854 855 855 855 855 856 858 858 859 860 860 861 862 862 863 863 863 864 863 863 862 856 852 854 854 854 854 854 853 853 853 852 852 852 852 851 851 850 850 849 849
768 772 775 779 782 785 788 791 794 797 799 802 803 806 808 810 812 815 816 818 820 822 824 826 828 829 831 833 835 837 838 840 841 842 843 844 845 846 847 848 849 850 851 851 851 852 853 853 853 854 856 856 857 858 858 859 860 860 861 861 860 861 860 860 860 857 852 850 852 852 851 852 851 850 850 850 850 850 849 848 848 847 847 846 846
764 768 772 776 779 782 785 788 791 794 796 799 800 803 805 807 810 812 814 816 818 820 822 824 826 827 829 831 833 834 836 837 839 840 841 842 842 844 845 845 846 847 848 848 849 850 851 851 851 852 853 854 855 856 856 857 858 858 858 858 858 857 857 857 857 856 852 848 849 849 849 848 848 847 847 847 847 846 845 844 844 844 843 843 842
761 765 769 772 776 779 782 785 788 791 793 796 797 800 802 804 807 809 811 814 815 818 820 822 824 825 827 828 830 831 833 834 836 837 838 839 840 841 842 843 844 845 845 846 847 848 848 848 849 850 851 852 852 853 854 854 855 855 855 855 855 854 855 855 854 853 852 848 846 846 846 845 844 844 844 843 843 843 842 841 840 839 839 838 838
758 761 765 769 773 776 779 782 785 787 790 793 795 797 800 802 804 806 809 811 813 815 817 819 821 822 824 825 826 828 830 831 833 834 835 836 837 838 839 840 841 842 843 844 845 845 846 846 846 848 849 849 850 851 851 851 852 852 852 852 852 852 852 852 852 851 850 847 844 844 844 843 841 841 841 840 839 839 838 836 835 834 834 833 833
754 758 762 766 769 772 775 778 781 783 786 789 792 795 797 800 802 804 806 808 810 812 814 816 818 819 821 822 823 825 826 828 830 831 833 834 835 836 837 838 839 840 841 841 842 843 843 844 844 845 847 847 847 847 848 849 849 849 849 849 849 849 849 849 849 848 848 846 843 842 841 840 839 837 837 837 836 835 833 831 829 829 829 828 827
751 754 758 762 765 768 771 774 776 779 782 786 789 792 794 797 799 801 803 805 807 809 811 813 815 816 818 819 820 822 824 825 827 828 830 831 832 833 834 836 837 837 838 839 840 841 841 842 842 843 844 844 844 845 845 846 847 846 846 846 846 847 846 846 846 846 845 843 842 839 837 837 836 834 833 833 833 831 829 827 824 823 824 823 822
747 750 754 758 761 764 767 770 773 776 779 782 786 788 791 793 795 798 800 802 804 806 808 810 812 814 815 816 818 819 821 822 823 825 826 827 829 830 831 833 834 835 836 836 837 838 839 839 839 840 841 841 842 842 843 844 844 844 843 843 843 844 844 844 844 843 842 840 839 836 834 833 833 831 830 830 829 825 825 824 820 818 819 819 818
743 747 750 754 757 760 763 767 770 773 776 779 782 785 787 789 792 794 797 798 800 803 805 807 809 811 812 813 815 817 818 818 819 820 822 823 825 827 828 830 831 832 833 834 835 836 836 836 836 837 838 838 839 840 840 841 842 841 840 840 840 840 840 841 841 840 839 837 835 833 831 829 828 828 826 825 824 821 820 821 818 815 816 815 813
739 743 746 749 753 757 761 764 767 771 774 776 779 781 784 786 788 791 793 795 797 799 802 804 806 807 809 810 812 813 814 814 815 816 818 820 822 824 825 826 828 829 830 831 832 832 833 833 833 834 835 836 836 836 837 838 838 838 837 837 837 838 838 838 838 837 836 834 831 830 828 825 824 825 822 820 820 817 816 816 814 812 814 812 808
735 739 742 746 750 754 758 761 764 767 770 773 775 778 780 783 785 787 789 792 794 796 799 800 802 804 806 807 808 809 809 809 811 813 815 817 819 821 822 823 825 826 827 828 828 829 830 831 831 832 832 832 832 833 833 834 834 834 834 833 834 834 835 836 835 835 833 830 827 826 825 821 819 820 818 815 814 812 810 811 811 812 814 812 807
732 735 739 743 747 751 754 758 761 764 766 769 771 774 777 780 782 784 786 788 791 793 795 796 798 800 802 804 805 805 805 805 807 809 811 813 816 818 819 820 822 823 824 825 825 826 827 828 828 828 829 829 829 830 830 830 830 831 830 830 830 830 831 832 832 831 830 827 823 821 821 819 815 814 814 811 807 806 806 809 812 814 814 810 805
729 732 736 740 743 746 750 754 756 759 762 765 768 771 774 776 778 780 782 785 787 789 791 793 795 797 799 800 801 801 801 802 804 806 808 810 813 815 816 818 819 820 821 821 822 823 824 825 825 825 825 826 826 827 827 826 826 826 826 826 826 825 827 828 827 826 825 824 820 816 816 816 811 807 808 806 803 802 805 810 813 811 807 805 801
726 729 733 736 739 743 747 750 752 755 758 762 765 767 769 771 774 776 779 782 784 785 787 789 790 792 794 796 797 797 797 798 800 802 805 807 809 811 813 814 816 817 817 818 819 820 821 822 822 821 821 822 823 823 823 823 822 823 823 822 821 821 822 823 822 820 820 819 816 810 810 812 808 801 801 802 801 801 807 812 809 802 800 801 797
723 726 730 733 736 740 743 746 749 752 755 758 761 763 765 767 770 773 775 777 779 780 782 784 786 788 790 792 793 793 793 795 797 799 801 804 806 808 809 811 812 813 814 814 815 816 817 818 819 818 818 819 819 820 819 819 819 819 819 819 818 817 818 818 816 815 813 812 810 806 805 805 803 798 797 798 797 798 802 805 801 796 797 796 790
719 723 726 729 733 736 739 742 745 748 752 754 757 759 761 763 766 768 771 773 775 777 779 780 782 784 786 788 789 789 788 791 793 795 798 800 803 804 806 807 808 809 809 810 811 812 813 814 815 814 815 815 815 815 816 816 816 816 816 815 815 815 815 815 813 811 809 807 805 803 800 798 798 797 796 796 795 793 795 796 795 794 793 790 783
715 719 722 725 729 732 735 738 741 744 748 750 753 755 757 759 762 764 767 769 771 772 774 776 777 779 781 783 784 784 784 786 789 792 794 797 799 800 801 802 804 804 805 806 807 808 809 810 811 811 811 810 810 811 812 813 813 813 813 812 811 811 812 812 809 807 806 804 801 800 798 796 797 796 794 793 792 792 791 789 787 787 786 782 777
711 715 718 721 725 728 731 734 737 740 743 746 748 750 753 755 757 760 763 764 766 768 770 772 774 775 777 778 779 780 780 782 785 788 790 793 795 796 797 798 800 800 801 801 803 804 804 805 806 807 806 806 806 807 809 810 810 810 810 808 807 807 807 808 806 803 802 800 798 797 795 794 794 792 790 789 788 789 788 783 779 780 778 774 771
707 710 714 717 721 724 727 730 733 736 739 741 743 745 748 750 753 756 759 760 762 765 767 769 770 771 773 774 775 776 777 779 782 784 786 788 790 792 793 795 795 796 796 797 798 799 800 800 801 802 802 802 803 804 806 807 807 806 807 806 803 802 802 803 803 801 799 796 794 793 792 790 789 786 784 783 782 783 782 778 775 775 773 769 767
703 706 710 714 717 720 723 726 729 732 734 736 739 741 744 747 750 753 755 757 759 762 763 765 766 767 769 770 771 772 773 775 778 780 782 784 786 788 790 790 791 792 792 793 794 795 796 796 796 797 798 799 800 802 803 803 803 803 803 803 800 798 798 799 798 798 798 796 792 790 788 786 784 782 779 778 777 776 776 774 772 772 770 765 762
701 704 707 711 714 717 720 722 725 728 730 732 735 738 741 744 747 749 751 754 756 758 760 761 763 764 765 766 767 768 769 771 774 776 778 780 782 784 785 786 786 788 788 789 790 791 791 792 792 793 794 796 797 798 799 799 799 799 799 798 797 796 796 795 794 794 795 794 791 788 786 783 780 778 776 775 773 772 771 770 769 768 766 761 757
700 702 705 708 711 714 717 719 722 725 727 730 733 736 738 741 743 746 748 750 752 754 756 758 759 760 761 762 763 763 765 768 770 772 773 775 777 779 780 781 783 784 785 786 786 787 787 788 789 790 791 793 793 794 795 796 796 796 795 795 795 794 793 792 792 791 791 790 788 786 784 781 778 776 773 771 770 768 766 765 764 763 761 758 755
697 700 703 706 709 711 714 717 719 722 724 727 730 732 734 737 740 742 745 747 749 751 752 754 756 757 758 758 759 760 762 764 766 768 769 771 773 775 776 777 779 780 781 782 782 783 784 785 786 788 789 790 790 791 792 792 793 793 793 792 792 791 791 790 789 789 788 787 786 784 782 780 778 774 772 769 767 764 762 760 758 757 755 752 751
696 698 701 703 706 709 711 714 716 718 721 724 726 729 731 734 736 739 741 743 745 747 749 751 753 754 754 755 755 757 758 760 762 764 766 768 769 771 772 774 775 776 777 778 779 780 781 783 784 785 786 787 788 789 789 789 790 790 790 789 789 789 788 788 787 787 786 785 784 782 781 779 777 774 771 768 765 761 758 755 753 751 748 745 743
693 695 698 700 703 705 708 711 713 715 718 720 723 725 728 730 733 735 737 739 741 743 745 747 749 749 750 751 751 753 755 756 758 760 762 764 766 767 769 770 771 773 773 774 776 778 779 781 782 783 784 785 785 786 786 786 787 787 787 787 787 787 787 786 786 785 784 783 782 781 779 777 775 772 769 766 763 758 755 752 748 745 742 738 735
690 692 695 697 699 702 705 707 710 712 714 716 719 721 723 726 728 730 733 735 737 739 741 743 745 746 747 747 748 750 752 753 755 757 759 761 762 763 765 766 768 769 770 771 773 775 777 778 780 781 782 782 783 784 784 784 785 785 785 786 786 785 785 784 784 783 782 782 780 779 777 775 772 770 767 764 761 756 753 750 745 741 737 733 727
687 689 691 693 696 698 701 703 706 708 710 713 715 717 720 722 724 726 729 731 734 736 738 740 741 743 744 744 746 747 748 750 752 753 755 757 758 759 761 762 764 765 766 768 770 772 774 775 777 778 779 780 781 782 782 783 783 784 784 784 784 784 783 783 782 782 781 780 778 776 775 772 770 767 765 762 758 754 751 749 744 738 734 730 723
685 687 689 691 693 695 697 699 701 704 706 709 712 714 716 719 720 722 724 727 729 732 734 735 737 738 739 741 742 744 745 747 748 749 751 752 754 756 757 758 759 760 762 764 767 769 771 773 774 776 777 778 779 780 781 782 782 782 783 783 782 782 782 781 781 780 779 778 776 775 773 771 768 765 763 760 756 752 749 746 742 736 731 726 720
683 685 687 688 690 692 694 696 698 701 703 706 708 711 713 715 717 719 721 723 725 727 729 730 732 734 735 737 739 741 742 742 743 745 747 749 751 752 753 754 755 756 758 761 764 766 769 771 772 773 775 776 777 778 779 780 780 781 781 781 781 781 780 780 779 778 777 776 774 773 771 769 766 764 761 758 754 749 746 743 739 735 730 725 718
682 683 684 686 688 690 692 694 696 698 700 702 705 707 710 712 714 716 718 720 722 724 725 727 728 730 732 734 735 737 738 738 740 742 744 746 748 749 750 751 752 754 756 759 762 764 766 768 770 772 773 775 776 776 778 778 779 780 780 780 780 779 779 778 778 777 776 774 773 771 769 767 766 763 761 757 753 748 745 742 738 734 729 723 717
681 682 683 685 686 688 690 692 694 696 698 700 703 705 708 710 712 714 716 718 719 721 723 725 727 728 730 731 732 734 735 736 738 740 741 743 745 746 747 749 750 752 754 757 760 762 764 767 769 771 772 773 774 775 776 777 778 778 779 779 778 778 778 777 777 776 774 773 771 770 768 767 765 763 760 757 753 749 745 742 738 734 729 724 717
681 682 683 684 685 687 688 690 692 694 696 699 701 703 706 708 711 713 715 716 717 719 721 723 724 726 727 728 729 731 732 733 735 737 738 740 742 744 746 748 749 752 754 756 758 761 764 766 767 769 771 772 773 774 775 776 776 777 777 777 777 777 777 776 776 775 773 772 770 769 768 767 764 762 759 756 753 750 747 743 739 735 730 725 719
680 681 682 683 684 686 687 689 690 692 694 696 699 702 704 705 708 710 713 714 715 717 719 720 722 723 724 725 726 728 730 731 733 735 737 738 740 743 745 747 750 752 755 756 758 761 763 765 767 768 770 771 772 773 774 775 775 776 776 776 776 776 776 775 774 773 772 770 770 769 768 766 764 761 759 756 754 752 749 745 741 737 731 726 720
679 680 681 682 683 684 686 687 689 691 693 695 697 700 702 703 705 707 709 712 713 715 716 718 719 720 722 723 724 726 728 729 731 734 736 738 740 742 744 748 751 754 756 757 758 760 762 764 766 768 769 770 772 773 773 774 775 775 775 776 775 775 775 774 773 772 771 770 769 769 767 766 763 761 759 757 755 753 751 747 743 738 733 728 723
679 679 680 681 681 683 684 686 688 690 693 695 696 699 701 702 704 705 707 709 711 713 715 716 717 718 719 721 723 724 726 728 731 734 736 739 741 743 745 748 752 755 757 758 759 760 762 764 765 767 769 770 771 772 773 774 774 775 775 775 775 774 774 773 771 771 770 770 769 768 767 765 763 761 760 759 757 755 752 749 745 741 736 731 727
678 679 680 680 681 682 684 685 687 689 692 694 696 698 700 701 703 705 706 708 709 711 713 715 716 718 720 721 723 725 727 730 733 735 738 741 744 746 746 748 751 755 758 760 761 761 762 764 765 767 768 770 771 772 773 774 774 774 774 774 774 773 773 772 771 770 770 770 769 768 766 764 763 762 761 760 759 757 755 752 748 744 739 734 730
680 680 680 680 681 682 683 685 687 689 691 693 695 697 699 701 702 704 705 708 709 711 714 716 717 719 721 724 727 728 729 731 735 738 741 743 747 749 749 749 751 755 757 760 763 764 764 765 766 766 768 769 770 772 773 774 774 774 774 774 773 773 772 771 771 770 770 770 769 767 765 764 763 763 762 761 760 758 756 754 750 746 742 737 734
681 681 681 682 682 683 684 686 688 689 691 693 695 697 699 701 702 704 706 708 710 713 715 717 718 720 722 726 730 731 731 733 736 740 742 745 748 750 751 751 752 755 757 761 764 765 766 766 766 767 768 769 770 772 773 774 774 774 774 773 773 772 771 771 770 770 770 769 768 766 765 764 764 764 763 762 761 759 758 755 752 749 745 741 737
683 683 683 684 684 685 686 688 689 691 692 694 696 698 700 702 704 705 708 710 713 715 717 719 722 724 725 728 731 733 733 735 737 740 742 744 746 748 750 751 753 756 759 762 765 766 766 767 767 768 768 770 771 772 773 773 773 773 773 773 772 772 771 771 770 770 770 769 767 766 765 765 765 764 763 763 762 760 759 757 754 751 748 745 742
684 685 685 685 686 688 689 690 692 693 695 696 698 700 702 704 706 708 710 713 716 719 720 721 724 728 730 732 734 735 735 737 739 741 742 744 746 748 750 751 754 757 761 764 765 766 767 768 768 769 769 770 771 772 773 773 773 773 773 772 772 771 771 771 770 770 769 768 766 765 765 765 765 765 764 763 762 761 759 758 756 753 751 748 746
686 686 686 686 687 689 691 693 695 696 697 699 700 702 703 706 709 712 713 714 717 720 724 725 728 731 735 737 738 738 738 740 742 743 744 746 748 751 753 755 757 760 763 765 766 767 768 768 769 769 770 770 771 772 772 772 772 772 772 771 771 771 771 771 771 770 769 768 766 765 765 765 765 765 764 763 762 761 760 758 757 755 753 751 748
688 688 688 689 689 690 692 695 698 699 700 702 703 705 707 709 712 715 717 718 719 722 726 730 731 733 737 739 740 741 743 745 746 746 748 750 752 754 757 758 760 763 765 766 767 768 768 768 769 770 770 771 771 771 772 772 772 771 771 771 771 771 771 771 770 770 769 767 766 766 765 765 765 765 764 763 762 761 760 759 757 756 754 753 751
690 691 691 692 692 693 694 696 699 702 705 706 707 709 710 712 715 718 721 724 725 727 731 735 737 737 739 741 742 744 747 749 750 750 751 753 756 758 760 761 763 764 766 766 767 767 768 769 769 770 770 770 771 771 771 771 771 770 770 770 770 770 770 770 770 769 768 767 766 766 765 765 765 765 764 763 762 761 760 759 757 756 755 754 752
693 694 694 695 695 696 697 698 700 704 707 710 711 713 714 715 717 719 723 727 730 732 734 738 741 742 743 744 745 747 750 752 752 754 755 757 759 761 762 763 765 766 766 766 767 768 768 769 769 769 770 770 770 770 770 770 770 770 770 770 770 770 770 770 769 768 767 766 766 765 765 765 764 764 763 763 762 761 760 758 757 756 755 754 753
697 698 698 698 699 700 701 702 703 706 709 712 714 717 719 720 721 722 725 728 731 734 737 740 742 744 745 747 749 751 753 754 755 756 758 760 762 764 764 765 766 766 766 767 768 768 769 769 769 770 770 770 770 770 770 769 769 769 770 770 770 770 770 769 769 768 767 766 765 764 764 764 764 763 762 761 761 760 759 758 757 756 755 754 753
700 702 703 703 704 705 705 706 707 708 711 715 718 721 724 725 727 728 730 731 733 736 739 743 745 746 747 749 751 753 754 756 758 759 760 762 764 765 765 766 766 766 767 767 768 768 769 770 770 770 770 770 770 770 770 769 770 770 770 770 770 770 770 769 768 767 767 766 764 764 763 763 763 762 761 760 760 759 758 757 756 755 754 753 752
703 705 707 707 708 709 710 710 710 711 714 718 721 725 727 729 731 732 734 736 737 738 741 745 748 749 751 752 754 755 756 758 760 761 762 763 765 766 766 766 766 766 767 768 769 769 770 770 770 770 770 770 770 770 770 770 771 771 771 770 770 770 770 769 768 767 766 765 764 764 763 763 762 761 760 759 759 758 757 756 755 754 753 753 752
707 709 710 711 712 713 714 714 714 715 716 719 723 726 729 731 734 736 738 740 742 743 745 747 750 751 753 754 756 757 759 761 762 764 764 765 766 766 766 766 767 767 768 769 769 770 770 770 770 770 770 770 771 771 771 771 771 771 771 771 771 770 770 769 768 767 766 765 764 763 763 763 762 761 760 759 758 757 756 755 754 753 752 752 751
711 713 715 716 716 717 718 718 718 719 721 722 725 729 732 734 737 740 742 744 746 747 749 751 753 754 755 757 758 760 762 763 764 765 766 766 767 767 767 767 768 769 769 770 771 771 771 771 771 771 771 771 771 771 772 772 772 772 772 772 771 771 770 769 768 767 766 765 764 763 763 762 762 760 759 759 758 757 756 754 753 752 751 750 750
714 717 719 720 721 722 722 722 723 724 726 727 728 731 735 738 741 744 746 748 750 752 753 755 757 758 759 759 761 763 764 765 766 767 767 767 768 768 769 769 770 770 771 772 772 772 772 772 772 772 772 772 772 772 773 773 773 773 773 772 772 771 769 768 767 766 765 764 764 763 762 762 761 760 759 758 757 756 755 753 752 751 750 749 749
718 720 722 724 725 726 727 727 728 730 731 732 734 736 738 742 745 748 750 752 754 756 757 759 761 762 762 762 763 765 767 768 768 768 769 769 770 770 771 771 772 772 773 773 773 774 774 774 774 774 774 774 774 774 774 774 774 773 773 772 771 770 769 768 767 766 765 764 764 763 762 761 760 759 758 758 757 756 754 753 751 750 749 748 748
Wind_Speed
40 40 39 38 37 36 37 37 37 37 36 35 35 35 35 34 34 33 33 33 33 32 32 32 32 32 31 30 30 30 29 28 27 26 25 25 25 25 24 24 24 24 23 23 23 23 24 24 24 23 21 20 20 20 21 21 21 21 20 20 20 19 18 17 15 19 27 27 26 26 24 22 22 22 22 22 22 22 23 24 25 26 28 28 29
40 40 38 38 38 37 37 37 37 36 35 35 35 35 34 34 34 32 32 33 32 32 32 32 32 31 30 30 30 30 31 30 28 27 26 26 26 26 26 26 25 25 25 25 26 25 26 26 26 25 24 23 23 22 21 21 21 22 23 23 24 23 22 21 19 18 24 28 26 26 26 24 24 25 25 24 24 24 24 26 27 28 29 29 30
41 40 38 38 38 38 37 37 37 36 36 36 35 35 35 34 33 32 33 33 32 32 32 31 31 30 30 30 30 30 31 31 30 29 28 28 28 27 27 27 27 27 27 27 27 27 27 28 28 27 26 25 25 24 24 23 22 23 24 24 26 27 27 25 23 21 23 28 28 27 28 27 27 28 27 26 27 26 27 29 30 30 31 31 32
40 39 38 38 38 38 37 36 36 36 36 36 36 36 35 34 33 33 33 32 32 32 32 31 31 31 30 30 30 31 31 31 31 30 30 30 29 29 28 28 28 28 28 28 28 27 28 29 29 28 27 26 26 26 26 25 25 25 25 25 26 28 28 28 28 26 25 27 30 30 30 30 31 32 31 29 29 29 30 32 33 33 33 33 33
39 39 38 38 37 37 37 36 36 36 36 36 36 36 35 33 33 33 32 32 32 32 32 32 32 32 32 32 32 32 32 32 32 31 31 31 30 30 29 28 28 28 29 29 28 28 28 29 30 29 27 27 27 28 27 27 27 27 27 28 28 28 28 28 29 29 28 28 32 33 32 32 33 34 33 31 30 31 32 34 35 35 35 35 35
38 38 38 37 37 37 37 37 37 37 37 36 36 35 34 33 33 33 32 32 32 32 32 33 33 33 34 34 34 33 33 32 32 32 32 32 31 31 30 30 29 29 29 29 29 29 29 30 30 29 28 28 29 29 29 28 28 28 28 29 29 28 28 28 28 28 28 29 31 33 33 33 33 34 35 32 30 31 32 35 37 36 35 36 37
38 38 38 37 37 37 38 38 38 38 38 37 36 35 34 34 33 33 32 32 32 32 32 33 33 34 34 34 34 34 33 33 33 33 33 32 32 32 32 31 31 30 30 30 30 29 30 30 30 30 29 30 30 30 30 29 28 28 29 30 29 27 27 28 28 27 27 29 30 31 32 31 30 33 35 32 29 31 32 33 36 36 34 35 36
38 38 38 37 37 39 39 40 39 39 38 38 36 35 34 34 34 33 32 32 33 34 33 33 33 33 34 34 34 34 33 33 33 33 33 33 33 32 32 32 31 31 31 31 31 30 30 31 31 31 31 31 31 30 30 29 28 29 31 30 29 27 27 27 26 26 27 28 29 31 31 29 28 31 33 30 28 31 32 30 33 35 33 33 34
38 37 37 37 38 39 39 39 38 37 36 36 36 36 36 36 35 34 33 34 34 34 33 33 32 33 33 34 33 33 33 34 34 35 34 34 33 33 33 32 32 31 31 30 30 30 30 31 32 32 32 31 31 31 31 30 29 30 32 31 29 28 27 27 26 26 27 27 29 30 29 28 27 28 29 29 28 32 32 28 30 34 33 32 35
38 37 37 38 38 38 37 37 36 35 35 35 36 37 36 36 35 35 35 35 34 33 33 32 32 33 33 33 33 33 34 35 36 36 35 35 34 33 33 32 32 31 31 30 30 31 31 32 33 33 32 32 32 32 32 31 31 32 33 33 31 29 27 25 25 26 26 27 28 28 26 28 29 28 29 32 32 34 33 29 29 32 29 27 32
37 37 37 38 37 36 36 35 35 35 36 36 36 37 36 35 34 35 35 34 33 33 32 32 33 33 32 32 33 33 35 36 37 36 36 35 34 33 32 32 32 31 31 31 31 32 31 32 32 32 32 33 33 33 33 33 33 33 34 34 34 32 29 27 26 26 25 26 29 28 26 29 33 31 31 33 34 34 34 31 29 26 23 21 24
36 37 37 37 36 36 36 35 35 36 37 37 37 36 35 34 34 34 34 34 34 33 32 33 33 32 32 31 32 34 36 37 37 36 36 35 34 33 33 32 31 31 31 32 32 32 31 32 32 32 33 33 33 33 33 34 34 34 34 35 35 35 34 33 32 31 29 29 30 30 29 30 34 34 33 35 37 36 33 29 24 22 24 26 25
36 36 36 36 37 37 37 37 37 37 38 38 37 35 35 35 35 35 34 34 33 33 33 33 33 33 32 32 33 34 36 37 37 37 36 35 34 34 33 33 32 31 31 31 31 31 31 32 32 33 34 33 32 32 33 34 34 34 34 35 35 36 35 35 36 37 37 36 35 36 35 33 35 38 38 39 39 35 28 22 21 25 29 29 30
35 35 35 36 37 37 37 37 37 38 37 37 36 35 36 36 36 35 34 33 33 33 34 34 34 34 34 34 34 35 36 37 37 36 36 35 34 34 34 34 33 33 32 32 32 32 32 31 32 33 34 33 32 32 33 34 34 34 33 33 35 36 35 34 36 37 39 40 41 43 42 39 40 45 46 42 38 34 28 25 30 36 34 31 35
34 34 35 35 36 36 36 37 37 37 36 36 36 36 36 36 35 35 34 34 34 35 35 34 35 35 35 35 35 36 38 38 37 36 35 34 33 33 33 34 34 34 34 34 34 33 33 32 32 34 34 33 33 33 34 34 34 33 33 33 34 35 33 33 35 37 38 40 42 45 46 44 45 49 49 44 40 36 29 28 38 41 34 33 38
33 34 34 35 36 36 37 36 36 36 36 35 35 36 36 36 36 36 35 34 35 35 34 34 35 35 35 35 35 37 39 39 37 37 35 33 32 32 32 33 34 34 35 35 35 35 34 33 33 35 35 35 36 36 35 35 34 33 33 33 34 34 31 31 35 39 40 41 42 44 46 48 47 48 49 47 46 43 31 25 33 36 31 30 35
33 33 34 35 36 36 37 37 36 36 35 35 35 35 36 36 37 36 34 34 34 34 35 35 35 35 35 35 36 38 40 39 37 37 35 33 31 31 31 33 33 34 35 36 35 35 35 35 34 35 36 36 38 37 36 35 34 33 32 33 33 32 30 31 35 38 39 41 43 44 44 46 46 45 46 45 46 48 40 31 32 35 30 24 24
32 33 34 35 36 37 38 38 37 36 35 35 36 36 37 37 36 36 35 35 35 36 35 34 34 35 35 37 38 39 40 38 36 36 35 33 32 32 32 32 32 34 35 35 35 35 36 36 35 35 36 37 38 38 36 34 32 31 31 31 31 31 31 31 33 35 36 35 36 36 37 40 40 40 42 42 42 44 43 41 41 39 32 25 24
33 34 36 36 37 38 38 38 38 37 36 36 37 38 37 37 36 36 35 36 35 35 34 33 33 34 36 37 37 38 39 37 35 35 34 33 33 33 32 32 32 33 34 34 34 35 36 37 36 36 38 38 38 37 35 33 32 32 31 29 30 32 32 29 27 28 31 32 32 34 37 39 39 38 39 40 39 38 38 42 45 41 35 31 30
35 37 37 36 37 37 38 38 38 37 37 38 38 38 37 36 35 34 34 34 34 32 32 32 32 33 35 36 37 38 39 36 34 34 34 33 33 33 32 32 33 33 34 34 34 33 34 36 36 36 37 36 36 35 34 33 32 32 31 29 30 33 31 27 22 19 23 31 35 36 37 37 38 38 37 36 36 35 34 34 37 38 36 35 34
34 35 35 34 35 36 36 37 38 37 38 38 37 36 35 34 33 33 33 33 32 31 31 31 31 32 33 35 36 38 38 36 35 34 34 34 33 33 33 34 34 34 33 33 33 33 34 34 35 34 33 31 31 30 29 29 29 29 30 30 31 32 30 28 25 18 16 22 27 29 31 34 36 36 36 35 35 35 33 30 29 31 34 36 36
31 33 33 32 33 34 34 35 36 36 36 35 34 34 33 33 32 32 32 31 30 31 30 30 30 30 31 33 35 36 36 35 34 34 34 34 33 33 34 34 34 34 33 32 32 33 34 33 32 30 28 26 25 24 23 23 23 24 25 25 25 25 24 24 23 19 15 16 19 22 26 29 31 32 33 34 35 36 34 31 28 28 30 33 35
31 30 31 31 31 32 33 34 35 35 34 34 34 34 33 32 32 31 31 30 29 29 29 29 28 28 29 31 32 34 34 33 33 34 34 33 32 32 33 33 33 34 33 33 33 33 32 30 28 26 24 22 21 19 18 18 18 18 18 18 18 19 19 19 17 15 14 13 13 17 21 23 26 30 33 34 37 38 38 37 35 33 32 33 34
28 29 30 30 30 31 32 33 34 34 33 33 33 33 31 31 30 30 30 29 28 27 27 27 27 26 27 28 30 31 32 32 32 32 32 32 32 31 32 31 32 33 34 34 33 31 28 26 24 22 20 18 16 15 15 15 15 15 15 15 16 15 14 13 10 9 10 11 13 16 20 23 26 29 31 34 36 38 40 40 39 37 36 36 35
27 29 30 30 30 30 30 31 33 33 33 33 33 32 31 29 29 29 29 29 28 26 26 26 26 26 26 27 28 29 30 30 30 30 30 30 30 30 30 30 30 32 34 34 32 28 25 22 19 18 16 14 14 14 14 13 13 12 11 11 10 8 5 5 7 9 11 13 15 17 20 23 25 26 29 31 32 35 37 38 38 39 39 38 39
26 28 30 31 32 31 30 29 30 32 32 32 32 33 32 31 30 29 29 29 28 26 25 25 25 25 25 26 26 27 27 27 28 28 27 28 28 28 28 28 29 32 34 33 29 25 23 21 18 17 15 14 14 13 12 10 8 7 6 3 1 2 6 8 10 11 12 13 16 18 21 23 23 25 28 28 29 32 34 34 37 40 39 39 40
25 26 28 30 31 32 31 30 30 30 31 31 31 32 31 30 29 28 27 26 26 25 24 24 23 24 24 25 25 25 25 25 26 26 26 26 27 27 27 28 30 31 32 31 28 24 21 18 16 15 14 13 11 9 8 7 6 5 5 6 7 9 11 11 11 12 13 14 16 18 20 22 23 26 28 28 30 33 33 33 35 37 38 38 38
19 22 24 26 28 30 31 31 31 30 30 29 29 29 29 29 28 28 29 28 27 26 25 25 25 27 27 25 23 22 22 24 26 26 26 27 26 27 27 28 30 31 32 31 27 23 19 16 14 13 11 10 9 8 8 8 8 9 10 10 10 11 12 12 13 14 14 15 15 16 18 21 24 27 28 27 29 33 33 32 33 36 38 37 35
11 15 18 21 23 25 27 28 29 28 27 27 26 25 26 27 27 28 29 30 30 30 28 28 29 29 28 26 24 23 23 25 27 27 26 25 25 26 26 27 29 30 30 28 25 21 18 15 14 13 12 12 12 11 10 11 12 11 10 10 11 11 12 13 14 15 16 15 15 16 18 21 24 25 24 23 27 32 33 34 34 35 36 35 33
6 9 13 17 20 22 23 24 24 25 25 26 25 22 20 22 24 25 26 27 29 30 30 30 30 30 28 27 27 27 27 27 27 25 24 23 23 24 24 25 26 26 24 22 21 20 18 17 15 15 15 14 13 12 12 12 12 11 10 10 10 11 12 13 14 15 16 16 17 18 20 20 20 21 19 20 26 30 32 34 35 35 34 33 32
3 6 9 13 17 19 21 22 22 23 24 26 25 22 18 16 16 19 22 23 25 27 28 28 28 28 27 27 27 27 27 26 24 22 22 22 22 23 24 23 22 22 21 21 21 21 21 20 17 16 15 14 12 12 11 11 11 10 9 9 10 11 12 12 13 14 15 16 18 20 20 19 19 19 17 19 23 27 30 33 34 33 32 32 31
3 4 7 11 14 17 19 21 22 23 24 24 23 22 21 17 13 12 15 18 20 22 24 24 24 25 26 26 26 25 26 25 22 21 21 22 22 22 21 20 19 20 22 22 22 22 21 20 17 15 13 12 11 11 10 10 9 8 7 8 8 9 11 11 11 12 14 16 17 20 21 21 21 21 19 19 22 25 28 31 32 31 30 30 29
2 4 7 10 14 16 19 20 21 23 25 24 21 21 22 21 19 15 12 12 15 17 19 21 22 22 23 24 25 24 23 22 20 21 22 23 22 21 21 21 22 23 23 22 21 20 19 16 14 12 12 12 12 11 10 9 8 6 6 5 6 8 9 9 9 11 13 14 16 19 21 21 22 22 20 20 21 22 24 27 29 28 27 27 27
1 3 6 10 14 16 19 20 20 21 23 23 22 21 21 22 23 21 17 14 13 13 15 17 19 20 20 22 23 22 20 20 21 23 24 24 24 25 25 24 23 21 20 19 19 19 17 14 12 11 11 12 11 10 9 8 7 6 5 3 5 7 8 8 9 12 13 14 16 18 20 21 22 21 18 18 18 19 20 24 26 26 25 25 26
2 2 5 8 11 14 17 19 20 19 19 20 20 21 21 22 22 20 18 17 17 15 13 13 15 17 18 19 20 20 21 22 24 25 25 25 25 25 25 23 20 17 15 16 17 17 16 14 12 11 11 11 10 9 8 8 6 5 4 3 5 7 8 9 10 11 12 13 15 17 18 19 21 21 18 17 17 17 18 21 23 24 24 24 25
3 3 5 7 10 12 15 17 19 19 19 20 20 21 21 22 20 18 17 18 19 18 16 15 14 14 15 18 20 21 23 25 26 26 26 25 23 22 22 22 19 16 14 14 13 13 13 13 13 12 11 10 9 8 8 7 6 4 4 4 6 8 9 10 11 10 11 13 14 15 16 17 19 20 19 19 19 18 17 17 19 21 23 23 23
3 4 6 7 10 12 14 16 17 18 20 20 20 21 21 20 20 20 20 20 21 21 20 20 21 21 21 22 24 26 28 29 28 26 25 23 19 16 17 19 18 16 14 12 11 11 12 12 13 13 12 10 9 8 7 7 5 4 5 6 8 9 10 11 11 10 11 12 13 14 15 15 16 17 18 18 19 19 18 18 18 20 22 23 22
4 5 6 8 10 12 14 15 16 17 19 19 20 21 21 21 21 22 22 22 22 22 21 22 25 27 28 27 28 29 30 30 28 25 22 19 17 15 15 15 14 14 13 12 12 13 13 12 12 12 12 10 9 8 8 7 6 6 7 8 9 9 10 10 11 10 10 11 13 14 14 13 12 14 15 16 16 17 16 16 16 17 20 22 22
8 7 7 8 10 12 14 15 16 16 18 18 19 19 20 20 21 21 21 21 20 20 21 23 23 25 28 30 30 29 28 27 25 23 20 18 17 16 14 14 14 15 14 12 12 13 13 11 11 11 11 10 9 9 8 7 6 6 7 7 8 9 10 10 11 11 11 12 13 14 13 12 10 10 12 14 14 14 14 14 14 14 15 16 17
11 10 10 10 12 13 14 15 16 16 16 17 17 17 17 17 18 19 20 20 19 18 20 24 24 23 25 28 27 27 26 25 23 22 21 20 18 17 16 17 17 16 14 12 12 12 13 12 12 11 11 10 8 8 7 6 6 6 6 7 8 9 10 10 10 10 10 12 13 13 13 12 11 9 10 11 11 12 12 12 12 13 13 13 13
13 14 14 14 15 16 15 15 15 15 16 17 17 19 20 20 20 19 20 22 22 20 20 22 23 21 20 20 22 24 26 25 23 23 23 22 22 21 20 19 18 17 15 14 14 13 13 13 12 10 9 8 7 6 5 5 5 6 7 7 8 8 8 9 9 9 9 11 12 12 12 12 12 11 10 9 9 9 9 10 10 11 12 12 12
15 17 17 17 18 19 19 17 16 16 18 20 20 21 23 24 23 21 20 22 25 25 24 23 23 22 21 20 22 25 26 26 25 25 25 24 23 22 20 18 17 17 16 14 13 12 11 11 10 9 8 7 6 5 5 4 5 6 7 8 8 8 7 7 8 9 9 9 10 10 10 10 11 11 10 9 9 8 6 7 8 9 10 10 10
16 18 19 19 19 20 21 21 20 19 19 20 22 22 24 25 25 24 22 22 24 26 26 25 24 25 25 25 26 27 26 26 25 25 25 24 22 21 19 17 16 15 14 13 12 11 10 10 9 8 7 6 6 5 5 5 6 6 7 9 10 9 8 7 8 10 10 10 9 8 7 8 8 9 10 11 11 10 8 7 7 7 8 8 7
18 19 21 22 23 23 24 26 27 24 22 22 23 24 25 27 29 29 28 27 27 27 27 26 25 26 27 27 27 27 26 25 25 25 24 23 21 20 19 18 16 15 14 13 12 11 10 10 10 9 8 8 7 7 7 7 7 8 8 9 10 10 10 10 11 11 12 11 9 8 8 8 9 10 12 12 12 12 11 11 10 10 9 8 5
19 20 21 23 25 26 27 29 29 29 28 26 25 25 25 26 28 30 31 31 30 30 28 27 27 28 28 28 28 27 26 26 25 25 24 23 21 20 19 18 16 15 14 14 13 12 11 11 11 11 11 10 9 9 9 9 9 9 9 9 9 10 11 11 12 12 12 12 11 10 10 11 12 12 13 13 12 12 11 11 11 11 10 9 6
22 22 21 22 23 24 27 30 32 33 33 32 30 28 27 27 27 27 28 29 31 31 30 29 28 28 28 28 27 26 25 25 24 24 23 22 21 19 18 17 17 16 16 15 14 13 12 12 12 12 12 11 11 10 10 9 9 8 8 8 8 8 9 10 11 11 11 12 12 11 12 13 14 15 14 13 12 11 10 10 10 11 10 10 8
25 25 23 22 22 21 23 27 31 33 34 33 31 29 29 29 29 29 29 30 32 32 32 30 29 28 27 27 26 25 25 24 22 22 21 21 20 19 19 18 17 17 17 16 15 14 13 13 12 12 11 11 11 10 9 9 8 8 8 8 7 7 8 8 9 10 10 11 11 11 11 12 13 14 15 14 13 12 10 9 9 9 10 10 9
28 28 26 26 26 25 23 23 26 30 31 30 30 30 31 31 31 31 30 30 31 32 31 30 28 27 27 26 25 25 24 24 23 22 21 21 20 20 20 19 18 18 17 16 15 15 14 13 13 12 11 11 10 10 9 9 9 8 8 8 8 8 8 9 9 9 10 10 10 11 11 11 11 12 13 13 14 14 13 11 10 10 10 10 10
30 29 28 28 28 28 27 26 28 30 31 32 33 34 35 35 34 33 31 31 31 31 30 29 28 27 27 26 26 25 25 25 25 24 24 23 22 21 21 20 19 19 18 18 17 16 15 15 14 13 13 12 12 11 10 10 9 9 9 9 9 9 8 9 9 9 9 9 10 10 11 11 11 11 11 11 12 13 13 14 14 13 12 12 11
33 31 29 29 29 29 29 30 30 30 30 32 33 34 35 35 35 33 32 32 31 30 29 29 28 28 28 28 28 27 26 26 26 25 25 25 24 22 21 21 20 19 19 19 18 17 17 16 15 14 14 14 13 12 12 12 12 12 12 11 10 10 9 8 8 9 9 9 10 10 11 11 12 12 11 11 11 11 11 12 13 14 15 15 14
39 38 36 34 33 32 32 32 32 31 31 32 33 33 33 34 34 33 32 32 30 29 29 29 28 28 28 28 28 28 27 25 24 24 23 23 22 21 21 20 19 19 18 18 17 17 16 15 15 14 13 13 12 12 13 13 13 13 13 12 11 10 10 10 9 9 10 10 10 10 10 11 11 12 12 12 12 11 11 11 11 12 14 15 16
Wind_Direction
202 204 205 206 207 208 210 211 212 213 214 215 217 219 221 222 225 227 228 231 232 233 235 236 236 236 235 236 238 242 246 247 247 246 244 244 244 244 245 245 246 249 251 252 253 255 257 259 263 265 267 266 265 263 261 259 260 260 260 261 261 262 263 254 248 268 279 281 283 286 289 290 289 288 287 286 284 281 279 278 277 276 274 274 274
201 203 204 205 207 208 210 211 211 212 213 214 217 218 220 222 224 225 227 230 232 233 234 235 236 236 235 236 238 240 244 247 248 247 246 246 245 245 245 245 247 249 250 252 253 254 256 259 262 265 266 267 268 268 268 266 264 263 262 262 263 263 262 258 253 261 276 281 283 286 289 288 287 288 288 288 288 286 282 280 279 278 277 277 276
200 202 202 204 206 208 209 210 211 212 213 214 216 218 220 222 222 223 226 228 230 232 234 235 236 236 236 237 238 240 243 246 248 248 248 247 247 246 246 245 246 248 250 252 253 254 255 257 261 263 264 265 267 269 270 269 268 266 265 264 263 264 264 262 259 259 270 280 284 285 288 287 286 288 289 288 288 286 283 283 282 280 279 278 277
199 199 200 203 205 206 207 209 210 211 212 214 216 218 220 220 221 223 225 226 228 231 233 234 235 236 236 238 239 240 242 245 247 248 249 249 248 248 248 248 248 249 251 253 255 255 255 257 261 263 263 263 266 268 268 269 268 267 267 266 265 265 265 263 262 261 266 275 280 282 283 285 286 287 288 286 285 283 283 283 283 281 280 279 278
197 197 199 202 203 205 206 208 209 210 212 214 216 218 218 218 220 222 223 224 227 229 231 232 233 234 236 238 240 241 243 244 245 246 248 249 249 250 250 250 251 252 254 255 256 257 257 260 263 264 263 264 266 269 269 269 269 268 268 268 267 267 267 265 264 264 263 267 274 279 282 283 284 285 285 284 284 284 283 282 281 280 279 279 277
195 196 198 200 201 204 205 207 209 211 212 214 216 217 217 218 219 220 222 223 224 227 229 230 231 232 235 237 239 241 243 243 244 246 247 248 249 250 251 251 253 255 257 258 258 258 259 262 265 265 264 265 268 270 271 270 270 269 270 271 271 269 269 268 267 266 264 265 271 276 279 280 282 284 285 283 282 282 282 283 282 278 276 276 276
194 195 197 199 201 203 205 207 209 211 213 214 216 217 217 218 219 220 221 222 223 225 227 229 230 232 235 236 238 240 242 243 244 245 246 247 247 249 250 251 252 254 257 259 260 260 261 263 265 266 265 267 269 271 271 271 270 272 273 273 273 271 270 271 270 268 267 268 270 274 276 277 278 280 283 284 281 279 277 277 279 279 277 276 276
193 195 196 198 201 204 206 208 209 211 213 214 215 215 216 217 219 220 221 222 223 225 226 228 230 232 234 236 237 239 240 241 242 243 244 245 246 247 248 249 250 252 255 258 259 260 262 263 265 266 266 268 270 271 272 272 271 273 276 275 273 271 270 270 271 270 270 269 270 273 275 276 275 277 280 280 276 275 274 270 272 277 278 277 277
193 194 196 198 202 204 206 208 209 210 211 212 214 215 216 217 218 219 220 222 224 226 227 229 230 232 234 235 236 237 238 240 241 242 242 243 244 246 247 248 249 251 253 256 258 260 261 263 265 266 267 269 271 273 274 273 271 272 276 276 273 271 270 269 269 269 270 269 269 272 274 274 274 275 276 273 270 274 277 272 269 274 278 278 277
192 193 196 200 202 204 205 206 208 209 210 212 214 215 216 217 217 218 220 222 224 225 226 228 229 231 233 234 234 235 236 239 241 242 243 242 243 244 245 247 249 250 253 255 257 259 260 262 265 267 268 270 272 273 274 274 273 273 276 276 272 269 268 267 268 267 267 267 268 271 271 272 274 273 273 275 276 276 276 271 268 273 277 278 280
191 193 197 200 201 202 203 205 206 208 209 212 214 215 215 215 216 218 219 221 222 224 225 227 228 230 232 233 233 234 236 239 240 242 243 243 243 242 244 247 248 249 252 254 256 258 260 262 265 266 268 270 272 273 274 275 274 275 277 277 274 269 265 264 265 267 267 268 269 270 268 271 275 275 274 277 277 273 271 269 267 272 277 277 279
191 194 197 199 199 200 202 203 204 207 209 211 213 214 214 215 216 218 219 220 221 223 224 226 228 230 230 232 233 234 237 240 240 241 242 242 242 242 243 245 247 249 251 253 256 258 259 262 264 266 267 269 271 273 274 275 276 276 277 278 278 274 269 266 265 265 265 266 269 269 267 270 275 276 274 275 275 273 271 271 271 274 275 271 269
191 194 196 197 198 200 201 201 204 207 209 211 212 212 213 215 216 217 219 220 221 222 224 226 229 230 230 231 233 236 239 241 241 242 242 242 242 242 243 244 246 249 251 253 255 257 258 260 262 264 267 268 269 271 272 274 276 276 276 277 278 277 274 271 268 267 265 264 266 268 268 269 271 273 273 273 274 274 276 283 284 275 268 265 267
192 194 196 197 199 200 200 201 204 207 208 209 210 211 212 214 216 217 219 219 220 221 223 225 228 230 231 232 234 237 240 241 242 242 242 243 243 243 244 245 246 248 251 253 254 256 257 258 260 263 266 267 267 269 271 273 273 273 273 274 276 278 278 276 275 273 269 264 262 264 269 270 270 274 277 274 272 272 275 282 280 273 269 269 273
192 195 196 198 199 199 200 202 204 206 208 208 209 211 212 214 215 217 218 219 220 222 223 224 227 229 231 233 235 238 241 242 243 243 243 244 244 244 245 246 246 248 250 252 254 255 256 257 258 262 265 266 267 268 269 271 272 271 271 271 274 277 276 277 281 282 279 275 270 271 275 276 274 277 281 281 278 275 269 269 271 272 274 276 276
193 195 196 198 199 200 201 202 204 206 207 207 209 211 212 214 215 216 217 219 221 222 223 224 226 228 230 232 234 238 242 243 243 243 244 244 243 244 244 245 245 247 250 252 253 254 256 256 257 260 263 265 267 268 269 270 269 269 270 271 273 274 274 277 283 286 286 285 283 283 284 285 283 285 287 288 288 285 279 271 272 273 272 271 271
193 195 197 198 199 201 201 202 204 206 206 207 208 211 213 214 216 215 215 217 219 221 223 224 226 228 229 230 232 236 241 242 242 243 243 242 242 242 242 243 244 246 250 252 253 254 256 255 256 259 261 264 267 269 269 269 268 267 269 271 273 273 274 276 280 283 284 285 286 286 287 288 288 288 288 287 287 287 284 279 275 272 267 263 264
194 195 198 199 200 201 202 204 205 205 206 207 209 212 213 215 216 215 215 216 219 221 222 224 226 228 228 230 232 235 239 241 241 242 242 241 241 241 242 242 243 245 249 252 254 255 256 257 257 257 259 263 267 270 269 268 267 266 267 271 273 272 273 276 278 281 282 282 282 283 283 284 284 284 284 283 284 284 280 276 275 272 266 260 261
196 197 200 201 202 203 204 205 206 206 206 208 211 213 214 215 216 216 216 217 219 221 222 223 225 227 229 231 233 235 239 241 240 240 241 240 239 240 240 240 241 244 248 251 253 255 257 258 259 258 259 263 267 269 268 267 267 268 268 270 272 273 276 277 276 276 278 279 281 284 285 286 288 289 288 287 287 285 279 275 274 271 267 265 266
198 200 202 202 202 204 205 206 207 207 208 210 213 214 215 215 215 215 216 218 220 222 222 223 225 227 229 231 234 236 238 239 239 239 240 239 238 238 237 237 239 243 246 248 251 253 255 258 260 261 262 263 264 266 267 266 267 268 267 265 267 272 277 278 276 274 276 281 287 291 293 295 297 297 297 296 295 292 286 282 279 273 269 268 268
200 202 203 203 203 205 206 207 208 209 210 212 214 215 215 215 214 214 215 216 218 220 222 223 225 228 230 231 234 236 237 238 238 238 239 239 238 237 235 235 238 242 244 247 249 251 255 258 261 263 263 264 265 266 266 266 266 267 266 265 267 272 275 279 284 287 284 285 292 297 299 303 305 306 306 306 306 304 298 291 285 279 273 269 268
201 203 204 204 205 205 206 208 209 210 212 213 213 215 216 215 215 214 214 215 216 218 220 221 224 227 230 232 234 236 237 237 237 238 239 239 238 236 235 237 241 241 242 244 247 250 255 258 260 262 263 264 266 266 266 266 264 263 264 265 268 273 278 283 291 297 298 296 297 300 304 308 312 314 316 316 316 314 309 300 293 287 280 274 272
202 204 205 206 207 206 207 210 210 211 212 212 213 215 215 214 214 214 213 213 214 216 218 220 222 226 230 232 234 237 238 238 237 238 239 239 239 238 238 241 244 243 240 242 247 250 253 256 258 261 262 262 262 261 260 259 258 258 262 267 273 279 286 292 298 305 312 314 312 310 314 318 319 319 320 320 318 315 311 307 302 297 292 286 281
202 205 207 209 210 208 209 210 211 212 212 212 212 214 214 213 213 213 213 212 212 214 216 217 218 223 228 232 234 236 237 238 238 238 239 240 240 241 241 243 245 244 242 243 247 249 251 254 256 257 255 252 251 251 252 255 260 265 270 276 281 285 289 297 310 328 336 337 329 321 321 323 320 318 318 318 316 315 313 312 309 304 300 297 292
202 205 207 211 213 212 211 211 212 213 213 211 211 213 213 211 211 211 211 211 211 212 214 215 216 220 225 229 233 235 236 236 237 238 239 241 242 243 244 245 246 244 242 242 244 245 247 249 248 244 242 241 245 252 259 262 267 271 273 275 277 282 301 341 3 5 357 346 336 327 325 326 323 321 321 319 317 317 317 316 314 311 308 305 302
199 202 205 210 213 214 213 212 212 214 214 213 213 214 212 210 209 210 209 209 210 212 213 213 215 218 223 228 231 234 235 235 235 236 237 239 241 242 243 245 245 242 240 239 240 242 242 241 239 238 240 247 253 257 257 256 254 252 249 238 179 61 41 34 25 13 359 348 339 332 329 330 328 327 328 326 321 320 320 319 318 315 313 311 307
197 200 203 206 209 211 211 212 212 213 213 213 213 215 214 212 210 209 207 207 209 211 212 214 213 215 221 227 229 231 232 232 232 233 233 235 238 240 240 241 241 240 237 235 235 235 233 232 235 240 243 245 245 240 228 221 209 182 149 112 83 59 43 33 24 15 3 350 343 337 334 336 335 335 334 331 326 325 325 324 320 317 317 315 309
195 201 204 205 206 208 209 210 210 211 211 211 211 212 213 212 211 211 210 208 207 208 210 212 213 215 218 222 223 223 225 227 229 231 232 233 235 236 236 237 238 239 237 233 228 225 227 229 230 230 226 215 204 195 186 175 155 134 114 89 67 50 40 31 23 17 7 356 348 343 341 341 341 340 338 332 328 329 331 329 325 321 321 320 312
182 198 205 206 207 208 209 209 209 209 207 204 203 206 210 211 212 213 214 214 213 212 212 213 215 218 219 220 219 215 217 227 234 235 235 235 235 235 236 236 237 237 235 230 222 215 213 213 207 197 188 182 176 169 161 149 135 119 99 78 63 49 37 30 25 18 9 1 355 349 346 345 343 341 338 333 332 334 336 336 334 330 327 323 315
153 187 201 206 208 208 207 207 207 206 201 196 193 193 198 205 209 211 213 216 217 218 219 221 223 223 221 222 223 223 228 237 241 236 232 231 232 234 236 236 235 232 225 217 208 199 189 182 178 175 173 171 167 158 148 140 129 113 94 75 59 43 32 28 26 18 10 6 2 357 353 348 342 340 338 336 337 340 342 342 340 337 334 328 321
122 178 196 206 208 205 202 201 200 198 195 192 188 182 179 185 196 203 207 211 214 216 220 224 228 229 227 227 227 227 232 240 240 233 226 223 223 225 227 228 225 216 204 192 184 179 173 167 164 165 165 162 158 150 141 132 124 111 92 71 52 36 29 28 25 16 10 9 7 2 358 352 344 341 342 342 343 344 346 347 345 341 338 333 327
106 169 192 204 204 201 197 193 190 187 185 183 181 177 171 164 163 177 195 203 207 210 214 218 223 227 229 230 229 227 228 230 230 224 217 213 213 214 213 209 198 186 181 177 170 167 167 163 157 156 156 151 143 138 132 125 119 106 84 64 45 31 27 28 25 17 13 12 9 4 2 358 353 349 349 351 350 348 348 349 347 343 340 338 335
101 168 181 185 189 191 189 186 184 183 181 178 175 175 174 169 159 152 159 178 193 201 205 209 215 219 223 225 227 228 227 223 217 211 205 201 198 192 184 176 170 168 171 172 166 161 160 157 150 147 147 142 135 130 126 121 114 100 80 60 36 25 28 32 26 19 18 17 12 7 7 6 3 359 356 357 357 352 349 351 350 348 347 347 347
78 177 181 179 181 183 185 185 183 181 181 180 177 176 178 176 168 157 149 151 162 176 187 196 203 208 211 215 217 218 216 209 199 193 188 183 178 174 166 160 159 164 170 172 166 158 153 148 143 141 141 137 133 129 122 117 112 104 95 73 33 26 33 34 25 19 20 17 12 10 12 13 12 9 3 0 360 357 354 357 359 358 359 1 2
73 160 183 186 184 182 184 186 183 178 176 177 177 178 179 178 173 167 161 156 152 150 155 168 182 192 198 201 202 200 195 186 177 171 166 160 158 158 155 149 147 152 160 163 159 154 149 144 139 138 136 133 131 128 122 117 116 110 101 71 41 39 40 32 24 21 21 16 12 12 16 18 19 19 15 8 5 1 359 2 7 10 13 16 18
86 140 168 183 184 180 181 183 182 179 177 177 178 179 178 175 172 166 161 156 149 141 136 138 149 163 172 171 169 168 165 159 154 152 149 145 144 146 144 137 133 133 138 144 146 143 140 138 135 132 130 129 128 128 126 124 121 111 89 65 55 53 44 32 25 22 18 13 11 13 19 23 26 27 24 19 16 11 7 9 16 22 28 30 29
97 141 159 171 176 175 174 176 177 178 177 176 176 174 170 169 167 160 153 147 141 135 130 129 131 133 136 140 143 144 143 142 140 139 138 138 141 145 140 132 130 130 130 131 134 131 128 129 130 129 129 131 133 132 128 125 119 102 85 74 65 56 47 37 32 25 16 12 13 16 20 25 32 33 28 22 19 16 15 19 25 31 36 39 38
94 126 146 157 163 165 164 164 167 169 170 169 169 167 163 159 155 149 143 138 133 129 128 130 131 131 132 135 138 138 135 134 132 130 129 131 134 135 130 128 133 137 134 132 134 132 129 129 130 131 132 132 130 126 123 119 110 94 85 77 64 51 45 43 41 34 24 18 17 19 21 25 32 33 26 20 18 16 16 21 27 33 42 48 49
99 111 129 144 150 152 153 152 153 156 158 157 157 155 151 145 141 138 135 131 129 127 127 127 128 130 133 136 138 135 130 127 128 129 130 132 134 136 137 136 136 135 132 133 136 133 130 129 127 126 126 125 121 119 119 112 99 86 79 74 63 50 43 43 42 38 31 25 23 22 22 24 27 26 22 19 18 16 15 19 25 29 35 42 49
111 116 125 132 134 136 139 140 142 142 141 141 140 136 130 126 127 128 127 126 124 123 124 123 123 128 135 138 138 134 128 125 126 129 130 131 132 133 133 130 127 125 125 126 127 126 124 123 122 121 122 120 118 117 113 101 88 79 71 64 57 48 41 37 36 34 31 30 29 25 20 16 14 13 16 20 21 20 21 23 27 29 29 30 37
118 119 121 126 128 127 124 121 124 126 126 125 125 124 121 118 118 119 121 122 120 116 114 114 116 123 132 136 136 131 125 120 120 119 118 117 116 116 115 116 117 118 120 121 122 122 121 120 120 120 119 118 115 112 106 95 84 74 62 49 42 38 34 31 29 28 30 33 34 31 23 16 12 9 10 14 17 20 27 31 33 36 37 35 37
121 118 117 118 119 117 112 105 103 109 113 113 112 112 113 113 113 112 112 112 113 111 107 106 109 116 122 126 125 121 116 113 113 112 110 110 110 111 113 116 118 121 123 123 121 120 119 117 117 117 116 114 111 107 102 91 73 58 46 36 30 28 30 27 22 21 25 29 31 31 28 23 20 15 8 2 356 355 9 28 33 31 30 31 37
121 117 114 111 107 104 104 103 99 94 95 101 105 107 108 107 105 102 97 93 96 98 96 94 97 104 111 118 121 117 111 109 109 108 108 110 112 113 114 116 118 120 122 120 117 116 117 117 115 110 107 104 100 93 85 74 63 54 46 40 37 35 33 27 17 15 17 19 18 19 17 12 8 3 357 351 345 336 332 340 348 352 359 9 21
115 112 110 108 103 98 99 102 99 93 90 93 97 100 104 105 104 103 99 94 92 93 93 93 95 96 100 108 113 112 109 107 107 107 108 109 111 112 114 116 117 119 119 118 117 119 119 115 111 107 102 97 92 86 79 72 66 61 53 47 43 39 34 28 22 17 14 11 7 2 357 350 341 334 331 331 331 326 322 322 324 329 336 341 344
103 103 103 102 101 100 100 102 101 98 94 91 88 89 94 99 101 103 103 102 100 98 97 98 101 101 100 102 104 104 104 104 105 106 107 108 109 111 113 115 116 116 114 114 115 116 116 114 112 110 105 100 94 88 82 76 69 62 55 49 43 38 32 28 24 20 16 13 8 0 353 346 337 329 325 323 322 318 315 315 320 325 328 330 333
98 97 97 97 98 99 101 102 102 100 96 91 87 86 87 88 91 94 97 99 101 99 97 95 96 96 97 99 100 100 101 101 102 103 105 106 107 107 108 109 110 109 108 108 108 110 111 110 109 106 101 96 92 86 79 73 66 58 51 45 38 33 27 21 16 12 11 10 9 5 359 351 344 339 335 331 327 322 312 306 312 319 322 324 327
99 96 95 96 98 99 100 101 103 102 100 98 95 93 90 89 89 90 91 94 97 99 99 98 96 94 94 95 96 97 98 98 97 99 101 102 102 102 102 103 103 102 101 101 101 101 101 101 98 96 92 88 83 78 72 65 57 48 40 31 22 16 11 5 0 358 358 360 2 3 0 355 348 345 342 339 337 335 326 311 305 307 311 314 316
96 95 94 94 96 97 97 98 100 101 100 100 99 96 95 94 92 91 91 93 93 95 95 96 96 95 94 93 92 94 94 94 94 94 96 97 98 98 97 96 96 95 94 94 92 90 89 89 87 85 83 79 74 69 63 56 49 40 32 23 13 5 358 351 346 346 348 352 353 354 354 352 347 344 342 338 336 337 337 332 324 315 308 305 302
91 90 89 89 90 91 92 93 95 96 96 97 95 93 92 92 91 90 90 89 89 90 90 90 90 91 91 90 91 92 93 92 91 91 91 92 92 93 93 92 92 91 88 86 84 81 80 79 77 74 72 69 66 62 57 51 45 39 32 25 18 10 1 352 347 347 349 351 350 349 347 345 342 341 339 336 332 331 330 329 327 323 318 312 305
90 87 84 83 83 85 87 89 90 91 92 94 94 92 90 89 88 87 87 85 84 84 84 85 86 87 87 88 90 90 90 90 90 89 89 89 88 88 89 88 88 87 85 82 81 79 77 74 72 69 66 63 61 58 54 49 45 40 34 28 21 15 9 3 358 356 353 351 349 348 349 348 346 345 343 340 337 333 329 325 323 321 318 315 310
89 88 84 80 79 79 80 82 83 85 86 87 88 88 88 87 86 85 85 84 83 82 83 84 85 85 86 87 89 89 89 89 90 90 91 90 89 89 88 87 85 84 83 80 78 76 75 72 69 66 63 59 56 53 50 45 40 35 32 27 22 18 15 11 8 5 2 355 349 348 352 355 354 354 353 351 348 345 341 337 334 329 323 317 313